Flag for Romania Weather past 2 weeks in Cluj-Napoca, Romania

Now
75 °F

Sunny.


Feels Like: 78 °F
Forecast: 53 / 78 °F
Wind: No wind

Location: Cluj Airport-Napoca

Current Time: Aug 30, 2014 at 7:44:51 PM

Latest Report: Aug 30, 2014 at 7:00 PM


Visibility: 10 mi

Pressure: 30.07 "Hg

Humidity: 44%

Dew point: 52 °F

Location of Cluj-NapocaLocation

Historic Weather in Cluj-Napoca — Graph

°F

Cluj-Napoca temperature yesterday

Maximum temperature yesterday: 77 °F (at 7:30 AM)
Minimum temperature yesterday: 43 °F (at 6:30 AM)
Average temperature yesterday: 60 °F

Past Weeks' High & Low Weather Summary

 TemperatureHumidityPressure
High81 °F (Aug 19, 4:30 PM)100% (Aug 19, 6:00 AM)30.21 "Hg (Aug 19, 6:00 AM)
Low43 °F (Aug 29, 6:30 AM)29% (Aug 22, 5:30 PM)29.80 "Hg (Aug 24, 4:00 AM)
Average64 °F73%30.00 "Hg
* Reported Aug 15 6:00 PM — Aug 30 6:30 PM, Cluj-Napoca, Weather by CustomWeather, © 2014

Note: Actual official high and low records may vary slightly from our data, if they occured in-between our weather recording intervals... More about our weather records

Advertising

Cluj-Napoca weather history for previous 24 hours

 ConditionsComfort  
Time TempWeatherWind HumidityBarometerVisibility
6:30 PM
Aug 30
73 °FSunny.2 mph47%30.09 "Hg10 mi
6:00 PM73 °FPassing clouds.2 mph47%30.09 "HgN/A
5:30 PM73 °FPassing clouds.2 mph47%30.09 "HgN/A
5:00 PM73 °FPassing clouds.No wind47%30.09 "HgN/A
4:30 PM75 °FPassing clouds.2 mph47%30.09 "HgN/A
4:00 PM73 °FPassing clouds.5 mph47%30.09 "HgN/A
3:30 PM75 °FPassing clouds.5 mph44%30.12 "HgN/A
3:00 PM73 °FPassing clouds.5 mph50%30.12 "HgN/A
2:30 PM73 °FPassing clouds.5 mph47%30.12 "HgN/A
2:00 PM73 °FPassing clouds.2 mph47%30.12 "HgN/A
1:30 PM72 °FPassing clouds.5 mph47%30.12 "HgN/A
1:00 PM72 °FPassing clouds.2 mph50%30.15 "HgN/A
12:30 PM70 °FPassing clouds.5 mph53%30.15 "HgN/A
12:00 PM68 °FPassing clouds.5 mph60%30.15 "HgN/A
11:30 AM66 °FPassing clouds.5 mph64%30.15 "HgN/A
11:00 AM64 °FSunny.5 mph68%30.15 "Hg10 mi
10:30 AM61 °FSunny.5 mph72%30.15 "Hg10 mi
10:00 AM59 °FSunny.2 mph72%30.15 "Hg10 mi
9:30 AM55 °FSunny.2 mph82%30.15 "Hg10 mi
9:00 AM54 °FSunny.No wind82%30.15 "Hg10 mi
8:30 AM52 °FSunny.No wind88%30.18 "Hg10 mi
8:00 AM48 °FClear.No wind94%30.18 "Hg5 mi
7:30 AM46 °FClear.No wind100%30.18 "Hg5 mi
7:00 AM46 °FFog.No wind100%30.15 "HgN/A
6:00 AM46 °FClear.No wind100%30.15 "Hg10 mi
5:30 AM48 °FClear.No wind94%30.15 "Hg10 mi
5:00 AM48 °FClear.No wind100%30.15 "Hg10 mi
3:00 AM50 °FPassing clouds.No wind94%30.15 "HgN/A
2:00 AM52 °FPassing clouds.2 mph94%30.15 "HgN/A
1:00 AM54 °FClear.No wind88%30.15 "Hg10 mi
12:00 AM55 °FClear.No wind88%30.15 "Hg10 mi
10:00 PM
Aug 29
57 °FClear.No wind82%30.15 "Hg10 mi
9:30 PM59 °FClear.2 mph82%30.15 "Hg10 mi
9:00 PM63 °FSunny.No wind64%30.12 "Hg10 mi
8:30 PM64 °FSunny.2 mph64%30.12 "Hg10 mi
8:00 PM66 °FPassing clouds.5 mph60%30.12 "HgN/A
7:30 PM70 °FPassing clouds.5 mph46%30.12 "HgN/A
7:00 PM70 °FPassing clouds.5 mph43%30.12 "HgN/A
Weather by CustomWeather, © 2014

See weather overviewHow to use our weather pages